Terminal Aerodrome Forecast
Issued by NWS

Home | Current Version | Previous Version | Text Only | Print | Product List | Glossary On
Versions: 1 2 3 4 5 6 7 8 9 10 11 12
000
FTUS42 TJSJ 292340
TAFKPK
TAF
TKPK 292340Z 3000/3024 08010KT P6SM SCT016 BKN080
     FM300300 VRB04KT P6SM VCSH SCT018 BKN090
     FM301330 09010KT P6SM VCTS SCT016CB BKN035
     FM302300 08008KT P6SM SCT025 BKN070
      AMD NOT SKED 3002/3011=

USA.gov is the U.S. government's official web portal to all federal, state and local government web resources and services.